Home > Weather > Burgdorf > Past weeks

Flag for Germany Past Weather in Burgdorf, Lower Saxony, Germany — Yesterday and Last 2 Weeks

Now
68 °F

Scattered showers. Partly sunny.


Feels Like: 68 °F
Forecast: 58 / 75 °F
Wind: 9 mph from Southwest

Location: Celle Airport

Current Time: Jun 30, 2016 at 5:54:38 PM

Latest Report: Jun 30, 2016 at 4:20 PM


Visibility: N/A

Pressure: 29.92 "Hg

Humidity: 69%

Dew Point: 57 °F

Location of BurgdorfLocation

Past Weather in Burgdorf — Graph

°F

Burgdorf Temperature Yesterday

Maximum temperature yesterday: 70 °F (at 7:20 PM)
Minimum temperature yesterday: 57 °F (at 3:20 AM)
Average temperature yesterday: 62 °F

High & Low Weather Summary for the Past Weeks

 TemperatureHumidityPressure
High90 °F (Jun 23, 4:20 PM)100% (Jun 16, 1:00 AM)30.24 "Hg (Jun 16, 1:00 AM)
Low46 °F (Jun 20, 5:20 AM)38% (Jun 23, 7:20 PM)29.50 "Hg (Jun 15, 6:20 PM)
Average64 °F76%29.96 "Hg
* Reported Jun 15 4:20 PM — Jun 30 4:20 PM, Burgdorf, Weather by CustomWeather, © 2016

Note: Actual official high and low records may vary slightly from our data, if they occured in-between our weather recording intervals... More about our weather records

Advertising

Burgdorf Weather History for the Previous 24 Hours

Scroll right to see more
 ConditionsComfort  
Time TempWeatherWind HumidityBarometerVisibility
4:20 PM
Thu, Jun 30
68 °FScattered showers. Partly sunny.9 mph69%29.92 "HgN/A
3:20 PM68 °FSprinkles. Partly sunny.14 mph64%29.89 "HgN/A
2:20 PM68 °FBroken clouds.9 mph64%29.89 "HgN/A
1:20 PM66 °FPartly sunny.14 mph64%29.89 "HgN/A
12:20 PM66 °FPartly sunny.12 mph68%29.89 "HgN/A
11:20 AM64 °FBroken clouds.9 mph73%29.89 "HgN/A
10:20 AM61 °FDrizzle. Mostly cloudy.9 mph83%29.89 "HgN/A
9:20 AM61 °FPartly sunny.7 mph88%29.89 "HgN/A
8:20 AM61 °FMostly cloudy.6 mph83%29.86 "HgN/A
7:20 AM59 °FBroken clouds.5 mph77%29.86 "HgN/A
6:20 AM59 °FPartly sunny.5 mph77%29.86 "HgN/A
5:20 AM59 °FLight rain. Passing clouds.1 mph77%29.86 "HgN/A
4:20 AM59 °FPassing clouds.6 mph72%29.86 "HgN/A
3:20 AM59 °FPassing clouds.2 mph77%29.86 "HgN/A
2:20 AM59 °FPassing clouds.2 mph72%29.86 "HgN/A
1:20 AM61 °FPassing clouds.1 mph68%29.89 "HgN/A
12:20 AM59 °FPassing clouds.1 mph72%29.89 "HgN/A
11:20 PM
Wed, Jun 29
57 °FPartly cloudy.1 mph82%29.89 "HgN/A
10:20 PM59 °FBroken clouds.2 mph77%29.89 "HgN/A
9:20 PM63 °FScattered clouds.2 mph64%29.89 "HgN/A
8:20 PM66 °FScattered clouds.7 mph56%29.89 "HgN/A
7:20 PM70 °FScattered clouds.10 mph50%29.89 "HgN/A
6:20 PM66 °FPartly sunny.5 mph60%29.89 "HgN/A
5:20 PM66 °FPartly sunny.10 mph60%29.89 "HgN/A
Weather by CustomWeather, © 2016

See weather overviewHow to use our weather pages